This is the latest recevied weather packets stored in our database for station/object OZ1IEP-5. If no packets are shown the sender has not sent any weather packets the latest 10 day(s).
| Time | Temp. | Humidity | Pressure | Rain* | Wind** | Luminosity | Snow |
|---|---|---|---|---|---|---|---|
| 1788123006 | 16.67° C | 89% | 1007.2 hPa | 0 mm | - | 0 W/m² | - |
| 1788122406 | 16.67° C | 90% | 1007.2 hPa | 0 mm | - | 0 W/m² | - |
| 1788121809 | 16.67° C | 90% | 1007.2 hPa | 0 mm | - | 0 W/m² | - |
| 1788121206 | 16.67° C | 90% | 1007 hPa | 0 mm | - | 0 W/m² | - |
| 1788120606 | 16.67° C | 90% | 1007 hPa | 0 mm | - | 0 W/m² | - |
| 1788120009 | 16.67° C | 90% | 1006.9 hPa | 0 mm | - | 0 W/m² | - |
| 1788119406 | 16.67° C | 90% | 1006.8 hPa | 0 mm | - | 0 W/m² | - |
| 1788118805 | 16.67° C | 90% | 1006.7 hPa | 0 mm | - | 0 W/m² | - |
| 1788118208 | 16.67° C | 91% | 1006.7 hPa | 0 mm | - | 0 W/m² | - |
| 1788117606 | 16.67° C | 91% | 1006.5 hPa | 0 mm | - | 0 W/m² | - |
| 1788117006 | 16.67° C | 90% | 1006.2 hPa | 0 mm | - | 0 W/m² | - |
| 1788116418 | 16.67° C | 90% | 1006.2 hPa | 0 mm | - | 0 W/m² | - |
| 1788115806 | 16.67° C | 90% | 1006.1 hPa | 0 mm | - | 0 W/m² | - |
| 1788115206 | 16.67° C | 90% | 1006 hPa | 0 mm | - | 0 W/m² | - |
| 1788114608 | 16.67° C | 91% | 1005.7 hPa | 0 mm | - | 0 W/m² | - |
| 1788114005 | 17.22° C | 91% | 1005.6 hPa | 0 mm | - | 0 W/m² | - |
| 1788113406 | 17.22° C | 92% | 1005.6 hPa | 0 mm | - | 5 W/m² | - |
| 1788112807 | 17.22° C | 92% | 1005.3 hPa | 0 mm | - | 11 W/m² | - |
| 1788112205 | 17.22° C | 92% | 1005.1 hPa | 0 mm | - | 16 W/m² | - |
| 1788111605 | 17.22° C | 92% | 1005 hPa | 0 mm | - | 28 W/m² | - |
| 1788111007 | 17.22° C | 92% | 1004.7 hPa | 0 mm | - | 19 W/m² | - |
| 1788110405 | 17.22° C | 91% | 1004.6 hPa | 0 mm | - | 18 W/m² | - |
| 1788109805 | 17.22° C | 91% | 1004.5 hPa | 0 mm | - | 21 W/m² | - |
| 1788109207 | 17.22° C | 92% | 1004.2 hPa | 0 mm | - | 16 W/m² | - |
| 1788108605 | 17.78° C | 92% | 1004 hPa | 0 mm | - | 14 W/m² | - |
* Rain latest hour (hover to see other rain measurements)
** Current wind speed in m/s (hover to see current wind gust speed)